Time,TemperatureF,DewpointF,PressureIn,WindDirection,WindDirectionDegrees,WindSpeedMPH,WindSpeedGustMPH,Humidity,HourlyPrecipIn,Conditions,Clouds,dailyrainin,SoftwareType,DateUTC
2013-06-12 00:01:00,65.5,53.8,29.65,WNW,285,0.0,4.0,66,0.00,,---,0.00,VWS V14.01,2013-06-12 04:01:00,
2013-06-12 00:02:00,65.5,53.4,29.65,WNW,285,1.0,1.0,65,0.00,,---,0.00,VWS V14.01,2013-06-12 04:02:00,
2013-06-12 00:03:00,65.5,53.8,29.65,WNW,285,0.0,1.0,66,0.00,,---,0.00,VWS V14.01,2013-06-12 04:03:00,
2013-06-12 00:05:00,65.3,53.7,29.65,WNW,285,1.0,1.0,66,0.00,,---,0.00,VWS V14.01,2013-06-12 04:05:00,
2013-06-12 00:10:00,65.0,53.8,29.65,SW,229,2.0,2.0,67,0.00,,---,0.00,VWS V14.01,2013-06-12 04:10:00,
2013-06-12 00:12:00,65.0,53.8,29.66,SW,229,0.0,4.0,67,0.00,,---,0.00,VWS V14.01,2013-06-12 04:12:00,
2013-06-12 00:17:00,64.7,53.5,29.66,SW,229,2.0,3.0,67,0.00,,---,0.00,VWS V14.01,2013-06-12 04:17:00,
2013-06-12 00:23:00,64.5,53.3,29.66,SW,236,4.0,4.0,67,0.00,,---,0.00,VWS V14.01,2013-06-12 04:23:00,
2013-06-12 00:28:00,64.7,53.5,29.66,WSW,244,3.0,4.0,67,0.00,,---,0.00,VWS V14.01,2013-06-12 04:28:00,
2013-06-12 00:34:00,64.5,53.3,29.66,WSW,244,3.0,4.0,67,0.00,,---,0.00,VWS V14.01,2013-06-12 04:34:00,
2013-06-12 00:39:00,64.5,53.3,29.66,WSW,244,2.0,3.0,67,0.00,,---,0.00,VWS V14.01,2013-06-12 04:39:00,
2013-06-12 00:45:00,64.3,53.1,29.66,WSW,238,3.0,3.0,67,0.00,,---,0.00,VWS V14.01,2013-06-12 04:45:00,
2013-06-12 00:51:00,64.2,53.4,29.66,WSW,238,2.0,3.0,68,0.00,,---,0.00,VWS V14.01,2013-06-12 04:51:00,
2013-06-12 00:57:00,64.2,53.4,29.65,WSW,238,2.0,3.0,68,0.00,,---,0.00,VWS V14.01,2013-06-12 04:57:00,
2013-06-12 01:03:00,63.9,53.1,29.65,WSW,257,2.0,3.0,68,0.00,,---,0.00,VWS V14.01,2013-06-12 05:03:00,
2013-06-12 01:08:00,63.9,53.5,29.65,WSW,257,3.0,4.0,69,0.00,,---,0.00,VWS V14.01,2013-06-12 05:08:00,
2013-06-12 01:13:00,63.7,53.7,29.65,WSW,244,2.0,4.0,70,0.00,,---,0.00,VWS V14.01,2013-06-12 05:13:00,
2013-06-12 01:18:00,63.7,53.3,29.65,WSW,240,2.0,3.0,69,0.00,,---,0.00,VWS V14.01,2013-06-12 05:18:00,
2013-06-12 01:23:00,63.7,53.7,29.65,WSW,240,1.0,2.0,70,0.00,,---,0.00,VWS V14.01,2013-06-12 05:23:00,
2013-06-12 01:28:00,63.5,53.5,29.65,WSW,240,1.0,2.0,70,0.00,,---,0.00,VWS V14.01,2013-06-12 05:28:00,
2013-06-12 01:33:00,63.5,53.5,29.65,WSW,240,3.0,3.0,70,0.00,,---,0.00,VWS V14.01,2013-06-12 05:33:00,
2013-06-12 01:38:00,63.4,53.5,29.65,SW,236,1.0,3.0,70,0.00,,---,0.00,VWS V14.01,2013-06-12 05:38:00,
2013-06-12 01:43:00,63.4,53.8,29.66,SW,236,0.0,0.0,71,0.00,,---,0.00,VWS V14.01,2013-06-12 05:43:00,
2013-06-12 01:48:00,63.4,53.8,29.66,SW,236,0.0,4.0,71,0.00,,---,0.00,VWS V14.01,2013-06-12 05:48:00,
2013-06-12 01:53:00,63.4,53.8,29.66,SW,236,0.0,0.0,71,0.00,,---,0.00,VWS V14.01,2013-06-12 05:53:00,
2013-06-12 01:58:00,63.2,53.7,29.66,SW,236,0.0,2.0,71,0.00,,---,0.00,VWS V14.01,2013-06-12 05:58:00,
2013-06-12 02:03:00,63.1,53.9,29.66,SW,236,2.0,3.0,72,0.00,,---,0.00,VWS V14.01,2013-06-12 06:03:00,
2013-06-12 02:08:00,63.1,53.6,29.66,SW,236,2.0,3.0,71,0.00,,---,0.00,VWS V14.01,2013-06-12 06:08:00,
2013-06-12 02:13:00,63.1,53.9,29.66,SW,236,3.0,3.0,72,0.00,,---,0.00,VWS V14.01,2013-06-12 06:13:00,
2013-06-12 02:18:00,62.9,53.8,29.66,WSW,238,3.0,3.0,72,0.00,,---,0.00,VWS V14.01,2013-06-12 06:18:00,
2013-06-12 02:23:00,62.7,53.9,29.66,WSW,238,0.0,0.0,73,0.00,,---,0.00,VWS V14.01,2013-06-12 06:23:00,
2013-06-12 02:28:00,62.6,53.8,29.66,WSW,238,2.0,3.0,73,0.00,,---,0.00,VWS V14.01,2013-06-12 06:28:00,
2013-06-12 02:34:00,62.4,54.0,29.66,WSW,238,2.0,4.0,74,0.00,,---,0.00,VWS V14.01,2013-06-12 06:34:00,
2013-06-12 02:39:00,62.4,54.0,29.65,WSW,254,1.0,3.0,74,0.00,,---,0.00,VWS V14.01,2013-06-12 06:39:00,
2013-06-12 02:44:00,62.4,54.0,29.66,WSW,254,0.0,2.0,74,0.00,,---,0.00,VWS V14.01,2013-06-12 06:44:00,
2013-06-12 02:50:00,62.3,53.9,29.66,SW,229,4.0,5.0,74,0.00,,---,0.00,VWS V14.01,2013-06-12 06:50:00,
2013-06-12 02:55:00,62.4,54.0,29.65,WSW,253,2.0,4.0,74,0.00,,---,0.00,VWS V14.01,2013-06-12 06:55:00,
2013-06-12 03:00:00,62.3,53.9,29.65,West,265,3.0,4.0,74,0.00,,---,0.00,VWS V14.01,2013-06-12 07:00:00,
2013-06-12 03:05:00,62.3,53.9,29.65,West,265,3.0,4.0,74,0.00,,---,0.00,VWS V14.01,2013-06-12 07:05:00,
2013-06-12 03:10:00,62.3,53.9,29.65,WSW,248,1.0,3.0,74,0.00,,---,0.00,VWS V14.01,2013-06-12 07:10:00,
2013-06-12 03:16:00,62.4,53.6,29.64,SW,236,2.0,2.0,73,0.00,,---,0.00,VWS V14.01,2013-06-12 07:16:00,
2013-06-12 03:22:00,62.4,54.4,29.65,SW,236,0.0,0.0,75,0.00,,---,0.00,VWS V14.01,2013-06-12 07:22:00,
2013-06-12 03:27:00,62.3,54.3,29.65,SW,236,0.0,0.0,75,0.00,,---,0.00,VWS V14.01,2013-06-12 07:27:00,
2013-06-12 03:32:00,62.1,53.7,29.64,SW,236,0.0,0.0,74,0.00,,---,0.00,VWS V14.01,2013-06-12 07:32:00,
2013-06-12 03:38:00,61.8,53.8,29.64,SW,236,0.0,0.0,75,0.00,,---,0.00,VWS V14.01,2013-06-12 07:38:00,
2013-06-12 03:44:00,61.6,53.6,29.65,SW,236,0.0,0.0,75,0.00,,---,0.00,VWS V14.01,2013-06-12 07:44:00,
2013-06-12 03:49:00,61.8,53.8,29.65,SW,236,0.0,1.0,75,0.00,,---,0.00,VWS V14.01,2013-06-12 07:49:00,
2013-06-12 03:55:00,62.0,53.6,29.65,SW,236,0.0,2.0,74,0.00,,---,0.00,VWS V14.01,2013-06-12 07:55:00,
2013-06-12 04:00:00,62.0,53.6,29.65,SW,236,1.0,2.0,74,0.00,,---,0.00,VWS V14.01,2013-06-12 08:00:00,
2013-06-12 04:05:00,62.1,53.7,29.65,SW,236,0.0,0.0,74,0.00,,---,0.00,VWS V14.01,2013-06-12 08:05:00,
2013-06-12 04:11:00,62.1,53.7,29.65,SW,236,0.0,2.0,74,0.00,,---,0.00,VWS V14.01,2013-06-12 08:11:00,
2013-06-12 04:17:00,62.1,53.7,29.66,SW,236,0.0,1.0,74,0.00,,---,0.00,VWS V14.01,2013-06-12 08:17:00,
2013-06-12 04:22:00,62.1,54.1,29.66,SW,236,0.0,0.0,75,0.00,,---,0.00,VWS V14.01,2013-06-12 08:22:00,
2013-06-12 04:27:00,62.0,53.6,29.66,SW,236,0.0,0.0,74,0.00,,---,0.00,VWS V14.01,2013-06-12 08:27:00,
2013-06-12 04:32:00,61.8,53.4,29.67,SW,236,0.0,0.0,74,0.00,,---,0.00,VWS V14.01,2013-06-12 08:32:00,
2013-06-12 04:38:00,61.6,53.2,29.67,SW,236,0.0,0.0,74,0.00,,---,0.00,VWS V14.01,2013-06-12 08:38:00,
2013-06-12 04:44:00,61.6,53.6,29.67,SW,236,0.0,0.0,75,0.00,,---,0.00,VWS V14.01,2013-06-12 08:44:00,
2013-06-12 04:49:00,61.3,53.3,29.67,SW,236,0.0,0.0,75,0.00,,---,0.00,VWS V14.01,2013-06-12 08:49:00,
2013-06-12 04:55:00,61.2,53.6,29.67,SSW,196,0.0,0.0,76,0.00,,---,0.00,VWS V14.01,2013-06-12 08:55:00,
2013-06-12 05:01:00,61.0,53.8,29.67,NNE,27,0.0,0.0,77,0.00,,---,0.00,VWS V14.01,2013-06-12 09:01:00,
2013-06-12 05:06:00,60.9,53.7,29.68,NNE,27,0.0,0.0,77,0.00,,---,0.00,VWS V14.01,2013-06-12 09:06:00,
2013-06-12 05:11:00,60.7,53.5,29.68,NNE,26,0.0,0.0,77,0.00,,---,0.00,VWS V14.01,2013-06-12 09:11:00,
2013-06-12 05:17:00,60.7,53.1,29.68,WSW,244,0.0,0.0,76,0.00,,---,0.00,VWS V14.01,2013-06-12 09:17:00,
2013-06-12 05:22:00,60.7,53.1,29.68,WSW,248,0.0,0.0,76,0.00,,---,0.00,VWS V14.01,2013-06-12 09:22:00,
2013-06-12 05:27:00,60.7,53.1,29.68,WSW,248,0.0,0.0,76,0.00,,---,0.00,VWS V14.01,2013-06-12 09:27:00,
2013-06-12 05:33:00,60.7,53.1,29.68,WSW,258,1.0,4.0,76,0.00,,---,0.00,VWS V14.01,2013-06-12 09:33:00,
2013-06-12 05:38:00,60.5,52.5,29.69,West,265,0.0,3.0,75,0.00,,---,0.00,VWS V14.01,2013-06-12 09:38:00,
2013-06-12 05:43:00,60.5,52.9,29.69,West,273,2.0,3.0,76,0.00,,---,0.00,VWS V14.01,2013-06-12 09:43:00,
2013-06-12 05:48:00,60.5,52.9,29.69,West,273,0.0,0.0,76,0.00,,---,0.00,VWS V14.01,2013-06-12 09:48:00,
2013-06-12 05:53:00,60.4,52.5,29.70,West,273,0.0,0.0,75,0.00,,---,0.00,VWS V14.01,2013-06-12 09:53:00,
2013-06-12 05:58:00,60.2,52.3,29.70,West,273,0.0,1.0,75,0.00,,---,0.00,VWS V14.01,2013-06-12 09:58:00,
2013-06-12 06:04:00,60.1,51.4,29.70,West,279,0.0,3.0,73,0.00,,---,0.00,VWS V14.01,2013-06-12 10:04:00,
2013-06-12 06:10:00,59.9,50.9,29.70,WSW,257,2.0,3.0,72,0.00,,---,0.00,VWS V14.01,2013-06-12 10:10:00,
2013-06-12 06:15:00,59.9,51.2,29.71,WSW,250,0.0,0.0,73,0.00,,---,0.00,VWS V14.01,2013-06-12 10:15:00,
2013-06-12 06:20:00,59.9,50.9,29.70,West,279,0.0,0.0,72,0.00,,---,0.00,VWS V14.01,2013-06-12 10:20:00,
2013-06-12 06:25:00,59.9,50.9,29.71,West,279,1.0,3.0,72,0.00,,---,0.00,VWS V14.01,2013-06-12 10:25:00,
2013-06-12 06:30:00,60.1,51.1,29.71,West,279,0.0,0.0,72,0.00,,---,0.00,VWS V14.01,2013-06-12 10:30:00,
2013-06-12 06:36:00,60.2,50.4,29.71,SW,229,0.0,1.0,70,0.00,,---,0.00,VWS V14.01,2013-06-12 10:36:00,
2013-06-12 06:42:00,60.4,50.6,29.71,West,259,2.0,3.0,70,0.00,,---,0.00,VWS V14.01,2013-06-12 10:42:00,
2013-06-12 06:48:00,60.7,51.2,29.71,West,259,1.0,4.0,71,0.00,,---,0.00,VWS V14.01,2013-06-12 10:48:00,
2013-06-12 06:54:00,60.9,50.7,29.71,WSW,246,0.0,0.0,69,0.00,,---,0.00,VWS V14.01,2013-06-12 10:54:00,
2013-06-12 06:59:00,61.0,50.8,29.72,West,273,2.0,4.0,69,0.00,,---,0.00,VWS V14.01,2013-06-12 10:59:00,
2013-06-12 07:04:00,61.2,51.3,29.72,West,273,3.0,4.0,70,0.00,,---,0.00,VWS V14.01,2013-06-12 11:04:00,
2013-06-12 07:09:00,61.2,51.0,29.72,WSW,250,0.0,2.0,69,0.00,,---,0.00,VWS V14.01,2013-06-12 11:09:00,
2013-06-12 07:15:00,61.0,51.2,29.72,WSW,250,3.0,3.0,70,0.00,,---,0.00,VWS V14.01,2013-06-12 11:15:00,
2013-06-12 07:21:00,61.0,51.2,29.72,WSW,250,0.0,3.0,70,0.00,,---,0.00,VWS V14.01,2013-06-12 11:21:00,
2013-06-12 07:26:00,61.2,51.3,29.72,WSW,250,0.0,3.0,70,0.00,,---,0.00,VWS V14.01,2013-06-12 11:26:00,
2013-06-12 07:31:00,61.2,51.0,29.72,WSW,239,3.0,3.0,69,0.00,,---,0.00,VWS V14.01,2013-06-12 11:31:00,
2013-06-12 07:36:00,61.3,50.7,29.73,WSW,254,0.0,3.0,68,0.00,,---,0.00,VWS V14.01,2013-06-12 11:36:00,
2013-06-12 07:41:00,61.3,51.5,29.73,WSW,250,3.0,3.0,70,0.00,,---,0.00,VWS V14.01,2013-06-12 11:41:00,
2013-06-12 07:46:00,61.3,50.7,29.73,WSW,244,3.0,3.0,68,0.00,,---,0.00,VWS V14.01,2013-06-12 11:46:00,
2013-06-12 07:51:00,61.3,51.8,29.73,WSW,244,3.0,3.0,71,0.00,,---,0.00,VWS V14.01,2013-06-12 11:51:00,
2013-06-12 07:56:00,61.3,51.1,29.73,WSW,244,0.0,3.0,69,0.00,,---,0.00,VWS V14.01,2013-06-12 11:56:00,
2013-06-12 08:01:00,61.5,50.8,29.73,WSW,242,5.0,5.0,68,0.00,,---,0.00,VWS V14.01,2013-06-12 12:01:00,
2013-06-12 08:06:00,61.6,51.7,29.73,WSW,240,2.0,3.0,70,0.00,,---,0.00,VWS V14.01,2013-06-12 12:06:00,
2013-06-12 08:11:00,61.6,50.5,29.73,West,265,0.0,0.0,67,0.00,,---,0.00,VWS V14.01,2013-06-12 12:11:00,
2013-06-12 08:17:00,61.6,51.0,29.73,WSW,250,0.0,3.0,68,0.00,,---,0.00,VWS V14.01,2013-06-12 12:17:00,
2013-06-12 08:22:00,61.8,52.3,29.73,SW,235,0.0,0.0,71,0.00,,---,0.00,VWS V14.01,2013-06-12 12:22:00,
2013-06-12 08:27:00,61.8,51.1,29.73,SW,235,0.0,4.0,68,0.00,,---,0.00,VWS V14.01,2013-06-12 12:27:00,
2013-06-12 08:32:00,61.8,51.1,29.73,WSW,246,0.0,5.0,68,0.00,,---,0.00,VWS V14.01,2013-06-12 12:32:00,
2013-06-12 08:37:00,62.0,51.3,29.73,WSW,250,2.0,3.0,68,0.00,,---,0.00,VWS V14.01,2013-06-12 12:37:00,
2013-06-12 08:42:00,62.0,52.1,29.73,SW,235,0.0,0.0,70,0.00,,---,0.00,VWS V14.01,2013-06-12 12:42:00,
2013-06-12 08:47:00,62.1,51.0,29.73,SW,219,4.0,5.0,67,0.00,,---,0.00,VWS V14.01,2013-06-12 12:47:00,
2013-06-12 08:52:00,62.3,52.0,29.74,WSW,252,2.0,3.0,69,0.00,,---,0.00,VWS V14.01,2013-06-12 12:52:00,
2013-06-12 08:57:00,62.4,51.7,29.73,NW,309,1.0,2.0,68,0.00,,---,0.00,VWS V14.01,2013-06-12 12:57:00,
2013-06-12 09:02:00,62.9,52.6,29.73,SW,234,5.0,5.0,69,0.00,,---,0.00,VWS V14.01,2013-06-12 13:02:00,
2013-06-12 09:08:00,63.5,52.4,29.74,West,269,1.0,6.0,67,0.00,,---,0.00,VWS V14.01,2013-06-12 13:08:00,
2013-06-12 09:13:00,63.9,52.7,29.73,WNW,286,0.0,1.0,67,0.00,,---,0.00,VWS V14.01,2013-06-12 13:13:00,
2013-06-12 09:18:00,64.3,52.3,29.73,WSW,246,4.0,5.0,65,0.00,,---,0.00,VWS V14.01,2013-06-12 13:18:00,
2013-06-12 09:23:00,64.5,52.9,29.73,WSW,250,3.0,3.0,66,0.00,,---,0.00,VWS V14.01,2013-06-12 13:23:00,
2013-06-12 09:28:00,64.5,51.6,29.74,NW,309,1.0,5.0,63,0.00,,---,0.00,VWS V14.01,2013-06-12 13:28:00,
2013-06-12 09:34:00,64.3,51.5,29.73,SW,223,5.0,6.0,63,0.00,,---,0.00,VWS V14.01,2013-06-12 13:34:00,
2013-06-12 09:39:00,64.3,51.5,29.73,North,350,3.0,9.0,63,0.00,,---,0.00,VWS V14.01,2013-06-12 13:39:00,
2013-06-12 09:44:00,64.5,52.1,29.74,West,268,2.0,6.0,64,0.00,,---,0.00,VWS V14.01,2013-06-12 13:44:00,
2013-06-12 09:49:00,64.7,51.0,29.73,West,261,3.0,9.0,61,0.00,,---,0.00,VWS V14.01,2013-06-12 13:49:00,
2013-06-12 09:54:00,64.5,51.6,29.73,West,280,2.0,4.0,63,0.00,,---,0.00,VWS V14.01,2013-06-12 13:54:00,
2013-06-12 09:59:00,64.5,51.2,29.73,West,267,3.0,6.0,62,0.00,,---,0.00,VWS V14.01,2013-06-12 13:59:00,
2013-06-12 10:04:00,64.8,52.3,29.74,SW,232,4.0,4.0,64,0.00,,---,0.00,VWS V14.01,2013-06-12 14:04:00,
2013-06-12 10:10:00,65.3,52.0,29.74,West,259,1.0,10.0,62,0.00,,---,0.00,VWS V14.01,2013-06-12 14:10:00,
2013-06-12 10:15:00,65.2,51.0,29.74,West,270,1.0,5.0,60,0.00,,---,0.00,VWS V14.01,2013-06-12 14:15:00,
2013-06-12 10:20:00,65.2,53.2,29.74,NW,306,2.0,2.0,65,0.00,,---,0.00,VWS V14.01,2013-06-12 14:20:00,
2013-06-12 10:25:00,65.0,51.2,29.74,SW,223,0.0,6.0,61,0.00,,---,0.00,VWS V14.01,2013-06-12 14:25:00,
2013-06-12 10:30:00,65.2,52.7,29.74,West,265,1.0,3.0,64,0.00,,---,0.00,VWS V14.01,2013-06-12 14:30:00,
2013-06-12 10:35:00,65.2,51.9,29.74,West,265,4.0,4.0,62,0.00,,---,0.00,VWS V14.01,2013-06-12 14:35:00,
2013-06-12 10:40:00,65.2,51.9,29.74,SSW,197,3.0,7.0,62,0.00,,---,0.00,VWS V14.01,2013-06-12 14:40:00,
2013-06-12 10:45:00,65.3,52.8,29.74,NNW,332,0.0,2.0,64,0.00,,---,0.00,VWS V14.01,2013-06-12 14:45:00,
2013-06-12 10:50:00,66.3,54.2,29.74,WSW,246,4.0,5.0,65,0.00,,---,0.00,VWS V14.01,2013-06-12 14:50:00,
2013-06-12 10:55:00,67.1,52.3,29.74,WSW,246,2.0,5.0,59,0.00,,---,0.00,VWS V14.01,2013-06-12 14:55:00,
2013-06-12 11:01:00,66.4,52.1,29.75,WSW,255,2.0,8.0,60,0.00,,---,0.00,VWS V14.01,2013-06-12 15:01:00,
2013-06-12 11:06:00,66.0,52.6,29.75,SW,228,4.0,6.0,62,0.00,,---,0.00,VWS V14.01,2013-06-12 15:06:00,
2013-06-12 11:11:00,66.1,52.7,29.75,SW,236,4.0,5.0,62,0.00,,---,0.00,VWS V14.01,2013-06-12 15:11:00,
2013-06-12 11:16:00,66.8,52.0,29.75,SW,220,2.0,3.0,59,0.00,,---,0.00,VWS V14.01,2013-06-12 15:16:00,
2013-06-12 11:22:00,66.9,52.1,29.75,WSW,240,2.0,5.0,59,0.00,,---,0.00,VWS V14.01,2013-06-12 15:22:00,
2013-06-12 11:27:00,66.6,52.8,29.75,WNW,303,2.0,3.0,61,0.00,,---,0.00,VWS V14.01,2013-06-12 15:27:00,
2013-06-12 11:32:00,66.4,52.1,29.76,North,350,1.0,3.0,60,0.00,,---,0.00,VWS V14.01,2013-06-12 15:32:00,
2013-06-12 11:37:00,66.4,50.7,29.76,NNW,338,0.0,2.0,57,0.00,,---,0.00,VWS V14.01,2013-06-12 15:37:00,
2013-06-12 11:42:00,66.4,50.7,29.76,West,277,2.0,2.0,57,0.00,,---,0.00,VWS V14.01,2013-06-12 15:42:00,
2013-06-12 11:47:00,66.3,51.1,29.76,North,5,0.0,2.0,58,0.00,,---,0.00,VWS V14.01,2013-06-12 15:47:00,
2013-06-12 11:52:00,66.6,52.3,29.76,WSW,254,2.0,3.0,60,0.00,,---,0.00,VWS V14.01,2013-06-12 15:52:00,
2013-06-12 11:57:00,67.3,52.0,29.76,WSW,254,2.0,3.0,58,0.00,,---,0.00,VWS V14.01,2013-06-12 15:57:00,
2013-06-12 12:02:00,67.3,51.1,29.76,West,259,5.0,5.0,56,0.00,,---,0.00,VWS V14.01,2013-06-12 16:02:00,
2013-06-12 12:07:00,67.1,51.8,29.76,WSW,254,0.0,3.0,58,0.00,,---,0.00,VWS V14.01,2013-06-12 16:07:00,
2013-06-12 12:13:00,67.3,52.0,29.76,WNW,288,2.0,5.0,58,0.00,,---,0.00,VWS V14.01,2013-06-12 16:13:00,
2013-06-12 12:19:00,67.6,52.3,29.76,WSW,246,1.0,4.0,58,0.00,,---,0.00,VWS V14.01,2013-06-12 16:19:00,
2013-06-12 12:24:00,68.3,53.0,29.76,WSW,249,4.0,6.0,58,0.00,,---,0.00,VWS V14.01,2013-06-12 16:24:00,
2013-06-12 12:29:00,68.8,52.5,29.76,WSW,253,3.0,5.0,56,0.00,,---,0.00,VWS V14.01,2013-06-12 16:29:00,
2013-06-12 12:34:00,68.9,52.6,29.76,NNE,29,0.0,3.0,56,0.00,,---,0.00,VWS V14.01,2013-06-12 16:34:00,
2013-06-12 12:39:00,68.9,52.6,29.76,SW,236,6.0,6.0,56,0.00,,---,0.00,VWS V14.01,2013-06-12 16:39:00,
2013-06-12 12:45:00,68.1,52.3,29.76,NNE,24,1.0,3.0,57,0.00,,---,0.00,VWS V14.01,2013-06-12 16:45:00,
2013-06-12 12:50:00,67.6,52.3,29.76,West,278,0.0,4.0,58,0.00,,---,0.00,VWS V14.01,2013-06-12 16:50:00,
2013-06-12 12:55:00,67.6,52.3,29.77,WSW,254,0.0,2.0,58,0.00,,---,0.00,VWS V14.01,2013-06-12 16:55:00,
2013-06-12 13:00:00,67.4,52.1,29.77,WSW,252,0.0,3.0,58,0.00,,---,0.00,VWS V14.01,2013-06-12 17:00:00,
2013-06-12 13:06:00,67.3,52.5,29.77,NW,313,1.0,2.0,59,0.00,,---,0.00,VWS V14.01,2013-06-12 17:06:00,
2013-06-12 13:11:00,67.9,53.5,29.77,WSW,243,0.0,3.0,60,0.00,,---,0.00,VWS V14.01,2013-06-12 17:11:00,
2013-06-12 13:16:00,68.9,54.0,29.77,East,92,2.0,2.0,59,0.00,,---,0.00,VWS V14.01,2013-06-12 17:16:00,
2013-06-12 13:21:00,69.4,51.5,29.77,West,259,2.0,4.0,53,0.00,,---,0.00,VWS V14.01,2013-06-12 17:21:00,
2013-06-12 13:26:00,69.6,52.2,29.77,SW,218,8.0,9.0,54,0.00,,---,0.00,VWS V14.01,2013-06-12 17:26:00,
2013-06-12 13:31:00,69.4,52.5,29.76,WSW,256,0.0,3.0,55,0.00,,---,0.00,VWS V14.01,2013-06-12 17:31:00,
2013-06-12 13:37:00,69.8,53.4,29.76,West,265,3.0,4.0,56,0.00,,---,0.00,VWS V14.01,2013-06-12 17:37:00,
2013-06-12 13:43:00,69.9,51.5,29.76,WSW,245,1.0,1.0,52,0.00,,---,0.00,VWS V14.01,2013-06-12 17:43:00,
2013-06-12 13:48:00,70.1,51.7,29.76,North,5,0.0,4.0,52,0.00,,---,0.00,VWS V14.01,2013-06-12 17:48:00,
2013-06-12 13:53:00,70.6,50.5,29.76,SSW,213,0.0,3.0,49,0.00,,---,0.00,VWS V14.01,2013-06-12 17:53:00,
2013-06-12 13:58:00,70.6,52.1,29.77,WSW,242,1.0,1.0,52,0.00,,---,0.00,VWS V14.01,2013-06-12 17:58:00,
2013-06-12 14:03:00,70.3,51.9,29.77,NW,315,0.0,3.0,52,0.00,,---,0.00,VWS V14.01,2013-06-12 18:03:00,
2013-06-12 14:09:00,69.4,52.0,29.77,SW,233,4.0,7.0,54,0.00,,---,0.00,VWS V14.01,2013-06-12 18:09:00,
2013-06-12 14:14:00,69.3,53.0,29.77,WNW,302,2.0,4.0,56,0.00,,---,0.00,VWS V14.01,2013-06-12 18:14:00,
2013-06-12 14:20:00,69.1,50.8,29.77,NW,305,1.0,3.0,52,0.00,,---,0.00,VWS V14.01,2013-06-12 18:20:00,
2013-06-12 14:25:00,69.1,51.8,29.78,North,5,5.0,6.0,54,0.00,,---,0.00,VWS V14.01,2013-06-12 18:25:00,
2013-06-12 14:31:00,69.3,53.4,29.77,SW,223,0.0,8.0,57,0.00,,---,0.00,VWS V14.01,2013-06-12 18:31:00,
2013-06-12 14:36:00,70.1,52.7,29.78,West,261,2.0,5.0,54,0.00,,---,0.00,VWS V14.01,2013-06-12 18:36:00,
2013-06-12 14:41:00,70.8,52.3,29.78,NNW,342,0.0,2.0,52,0.00,,---,0.00,VWS V14.01,2013-06-12 18:41:00,
2013-06-12 14:46:00,71.3,51.2,29.78,NW,304,3.0,10.0,49,0.00,,---,0.00,VWS V14.01,2013-06-12 18:46:00,
2013-06-12 14:51:00,71.5,51.9,29.77,WSW,250,0.0,4.0,50,0.00,,---,0.00,VWS V14.01,2013-06-12 18:51:00,
2013-06-12 14:57:00,71.1,52.1,29.78,WSW,242,0.0,3.0,51,0.00,,---,0.00,VWS V14.01,2013-06-12 18:57:00,
2013-06-12 15:03:00,70.8,52.3,29.78,NNW,343,0.0,6.0,52,0.00,,---,0.00,VWS V14.01,2013-06-12 19:03:00,
2013-06-12 15:08:00,71.1,54.1,29.78,SW,223,0.0,2.0,55,0.00,,---,0.00,VWS V14.01,2013-06-12 19:08:00,
2013-06-12 15:13:00,71.6,52.0,29.78,North,9,5.0,5.0,50,0.00,,---,0.00,VWS V14.01,2013-06-12 19:13:00,
2013-06-12 15:18:00,72.1,53.0,29.78,North,5,1.0,2.0,51,0.00,,---,0.00,VWS V14.01,2013-06-12 19:18:00,
2013-06-12 15:23:00,72.3,52.1,29.78,North,355,0.0,5.0,49,0.00,,---,0.00,VWS V14.01,2013-06-12 19:23:00,
2013-06-12 15:28:00,72.3,52.1,29.78,NW,313,0.0,11.0,49,0.00,,---,0.00,VWS V14.01,2013-06-12 19:28:00,
2013-06-12 15:33:00,72.5,51.7,29.78,NNW,339,0.0,9.0,48,0.00,,---,0.00,VWS V14.01,2013-06-12 19:33:00,
2013-06-12 15:39:00,73.0,54.9,29.77,NNW,329,6.0,6.0,53,0.00,,---,0.00,VWS V14.01,2013-06-12 19:39:00,
2013-06-12 15:44:00,72.8,51.4,29.78,West,275,1.0,2.0,47,0.00,,---,0.00,VWS V14.01,2013-06-12 19:44:00,
2013-06-12 15:49:00,72.5,51.2,29.78,WNW,296,3.0,3.0,47,0.00,,---,0.00,VWS V14.01,2013-06-12 19:49:00,
2013-06-12 15:54:00,72.1,51.3,29.77,West,281,0.0,3.0,48,0.00,,---,0.00,VWS V14.01,2013-06-12 19:54:00,
2013-06-12 15:59:00,71.5,50.8,29.77,West,265,1.0,2.0,48,0.00,,---,0.00,VWS V14.01,2013-06-12 19:59:00,
2013-06-12 16:04:00,70.6,51.6,29.77,WNW,296,0.0,0.0,51,0.00,,---,0.00,VWS V14.01,2013-06-12 20:04:00,
2013-06-12 16:09:00,69.9,52.5,29.77,West,259,1.0,1.0,54,0.00,,---,0.00,VWS V14.01,2013-06-12 20:09:00,
2013-06-12 16:14:00,69.8,52.9,29.78,NNW,338,0.0,1.0,55,0.00,,---,0.00,VWS V14.01,2013-06-12 20:14:00,
2013-06-12 16:19:00,70.3,51.9,29.77,NE,36,0.0,8.0,52,0.00,,---,0.00,VWS V14.01,2013-06-12 20:19:00,
2013-06-12 16:24:00,71.3,52.8,29.77,WSW,257,2.0,3.0,52,0.00,,---,0.00,VWS V14.01,2013-06-12 20:24:00,
2013-06-12 16:29:00,72.0,52.9,29.78,WSW,253,3.0,7.0,51,0.00,,---,0.00,VWS V14.01,2013-06-12 20:29:00,
2013-06-12 16:34:00,72.1,52.5,29.78,NNW,332,0.0,1.0,50,0.00,,---,0.00,VWS V14.01,2013-06-12 20:34:00,
2013-06-12 16:39:00,72.3,52.6,29.78,WNW,292,0.0,4.0,50,0.00,,---,0.00,VWS V14.01,2013-06-12 20:39:00,
2013-06-12 16:44:00,72.5,52.8,29.78,West,263,0.0,4.0,50,0.00,,---,0.00,VWS V14.01,2013-06-12 20:44:00,
2013-06-12 16:49:00,72.0,51.8,29.78,WNW,298,3.0,3.0,49,0.00,,---,0.00,VWS V14.01,2013-06-12 20:49:00,
2013-06-12 16:54:00,71.5,51.4,29.78,West,270,3.0,3.0,49,0.00,,---,0.00,VWS V14.01,2013-06-12 20:54:00,
2013-06-12 16:59:00,70.9,51.3,29.78,SSW,212,0.0,4.0,50,0.00,,---,0.00,VWS V14.01,2013-06-12 20:59:00,
2013-06-12 17:04:00,70.9,50.2,29.79,WSW,244,0.0,2.0,48,0.00,,---,0.00,VWS V14.01,2013-06-12 21:04:00,
2013-06-12 17:09:00,71.3,51.7,29.79,West,261,1.0,1.0,50,0.00,,---,0.00,VWS V14.01,2013-06-12 21:09:00,
2013-06-12 17:15:00,71.6,51.5,29.79,West,281,0.0,0.0,49,0.00,,---,0.00,VWS V14.01,2013-06-12 21:15:00,
2013-06-12 17:20:00,71.6,51.5,29.79,West,275,0.0,1.0,49,0.00,,---,0.00,VWS V14.01,2013-06-12 21:20:00,
2013-06-12 17:25:00,71.1,51.0,29.79,NNW,332,0.0,1.0,49,0.00,,---,0.00,VWS V14.01,2013-06-12 21:25:00,
2013-06-12 17:30:00,71.1,50.4,29.79,North,351,0.0,1.0,48,0.00,,---,0.00,VWS V14.01,2013-06-12 21:30:00,
2013-06-12 17:35:00,71.3,51.2,29.79,WSW,246,1.0,1.0,49,0.00,,---,0.00,VWS V14.01,2013-06-12 21:35:00,
2013-06-12 17:40:00,71.3,50.6,29.79,West,279,0.0,3.0,48,0.00,,---,0.00,VWS V14.01,2013-06-12 21:40:00,
2013-06-12 17:45:00,71.1,51.0,29.79,NW,323,0.0,1.0,49,0.00,,---,0.00,VWS V14.01,2013-06-12 21:45:00,
2013-06-12 17:50:00,70.8,51.8,29.79,NE,35,0.0,0.0,51,0.00,,---,0.00,VWS V14.01,2013-06-12 21:50:00,
2013-06-12 17:55:00,70.9,50.2,29.80,NNE,12,2.0,2.0,48,0.00,,---,0.00,VWS V14.01,2013-06-12 21:55:00,
2013-06-12 18:00:00,70.9,50.2,29.79,NNW,343,0.0,2.0,48,0.00,,---,0.00,VWS V14.01,2013-06-12 22:00:00,
2013-06-12 18:05:00,70.9,49.7,29.79,ENE,58,0.0,2.0,47,0.00,,---,0.00,VWS V14.01,2013-06-12 22:05:00,
2013-06-12 18:10:00,70.9,50.8,29.80,North,350,0.0,2.0,49,0.00,,---,0.00,VWS V14.01,2013-06-12 22:10:00,
2013-06-12 18:15:00,70.9,50.2,29.79,NW,319,0.0,4.0,48,0.00,,---,0.00,VWS V14.01,2013-06-12 22:15:00,
2013-06-12 18:21:00,70.9,51.9,29.79,WNW,291,0.0,0.0,51,0.00,,---,0.00,VWS V14.01,2013-06-12 22:21:00,
2013-06-12 18:26:00,70.9,51.9,29.80,North,5,0.0,0.0,51,0.00,,---,0.00,VWS V14.01,2013-06-12 22:26:00,
2013-06-12 18:32:00,70.8,50.7,29.80,North,5,2.0,2.0,49,0.00,,---,0.00,VWS V14.01,2013-06-12 22:32:00,
2013-06-12 18:37:00,70.6,50.5,29.80,NNE,23,1.0,2.0,49,0.00,,---,0.00,VWS V14.01,2013-06-12 22:37:00,
2013-06-12 18:42:00,70.4,50.9,29.79,NNW,336,0.0,0.0,50,0.00,,---,0.00,VWS V14.01,2013-06-12 22:42:00,
2013-06-12 18:47:00,70.4,51.4,29.79,NNW,342,0.0,4.0,51,0.00,,---,0.00,VWS V14.01,2013-06-12 22:47:00,
2013-06-12 18:52:00,70.3,51.9,29.80,NNE,20,0.0,1.0,52,0.00,,---,0.00,VWS V14.01,2013-06-12 22:52:00,
2013-06-12 18:58:00,70.3,51.3,29.80,NW,315,0.0,1.0,51,0.00,,---,0.00,VWS V14.01,2013-06-12 22:58:00,
2013-06-12 19:03:00,70.1,50.6,29.80,NNW,337,0.0,4.0,50,0.00,,---,0.00,VWS V14.01,2013-06-12 23:03:00,
2013-06-12 19:08:00,69.9,49.9,29.80,WNW,296,0.0,0.0,49,0.00,,---,0.00,VWS V14.01,2013-06-12 23:08:00,
2013-06-12 19:13:00,69.8,50.3,29.81,NW,304,0.0,2.0,50,0.00,,---,0.00,VWS V14.01,2013-06-12 23:13:00,
2013-06-12 19:18:00,69.6,50.2,29.81,NW,311,0.0,0.0,50,0.00,,---,0.00,VWS V14.01,2013-06-12 23:18:00,
2013-06-12 19:23:00,69.6,51.2,29.81,NW,311,0.0,0.0,52,0.00,,---,0.00,VWS V14.01,2013-06-12 23:23:00,
2013-06-12 19:29:00,69.4,50.0,29.82,NW,311,0.0,0.0,50,0.00,,---,0.00,VWS V14.01,2013-06-12 23:29:00,
2013-06-12 20:57:00,64.3,51.5,29.84,NW,311,0.0,0.0,63,0.00,,---,0.00,VWS V14.01,2013-06-13 00:57:00,
2013-06-12 21:03:00,63.9,51.5,29.84,NW,311,0.0,0.0,64,0.00,,---,0.00,VWS V14.01,2013-06-13 01:03:00,
2013-06-12 21:08:00,63.5,51.5,29.84,NW,311,0.0,0.0,65,0.00,,---,0.00,VWS V14.01,2013-06-13 01:08:00,
2013-06-12 21:13:00,63.2,51.7,29.84,NW,311,0.0,0.0,66,0.00,,---,0.00,VWS V14.01,2013-06-13 01:13:00,
2013-06-12 21:19:00,62.7,51.2,29.84,NW,311,0.0,0.0,66,0.00,,---,0.00,VWS V14.01,2013-06-13 01:19:00,
2013-06-12 21:25:00,62.4,51.3,29.84,NW,311,0.0,0.0,67,0.00,,---,0.00,VWS V14.01,2013-06-13 01:25:00,
2013-06-12 21:30:00,62.3,51.2,29.84,NW,311,0.0,0.0,67,0.00,,---,0.00,VWS V14.01,2013-06-13 01:30:00,
2013-06-12 21:36:00,62.1,52.6,29.84,NW,311,0.0,0.0,71,0.00,,---,0.00,VWS V14.01,2013-06-13 01:36:00,
2013-06-12 21:41:00,61.6,52.1,29.84,NW,311,0.0,0.0,71,0.00,,---,0.00,VWS V14.01,2013-06-13 01:41:00,
2013-06-12 21:47:00,61.3,52.2,29.84,NW,311,0.0,0.0,72,0.00,,---,0.00,VWS V14.01,2013-06-13 01:47:00,
2013-06-12 21:52:00,61.0,52.3,29.84,NW,311,0.0,0.0,73,0.00,,---,0.00,VWS V14.01,2013-06-13 01:52:00,
2013-06-12 21:57:00,60.5,52.2,29.84,NW,311,0.0,0.0,74,0.00,,---,0.00,VWS V14.01,2013-06-13 01:57:00,
2013-06-12 22:02:00,60.2,51.9,29.84,NW,311,0.0,0.0,74,0.00,,---,0.00,VWS V14.01,2013-06-13 02:02:00,
2013-06-12 22:08:00,59.9,51.6,29.84,NW,311,0.0,0.0,74,0.00,,---,0.00,VWS V14.01,2013-06-13 02:08:00,
2013-06-12 22:13:00,59.6,51.7,29.84,NW,311,0.0,0.0,75,0.00,,---,0.00,VWS V14.01,2013-06-13 02:13:00,
2013-06-12 22:19:00,59.5,51.6,29.84,NW,311,0.0,0.0,75,0.00,,---,0.00,VWS V14.01,2013-06-13 02:19:00,
2013-06-12 22:24:00,59.3,51.8,29.84,NW,311,0.0,0.0,76,0.00,,---,0.00,VWS V14.01,2013-06-13 02:24:00,
2013-06-12 22:29:00,59.3,51.8,29.84,NW,311,0.0,0.0,76,0.00,,---,0.00,VWS V14.01,2013-06-13 02:29:00,
2013-06-12 22:34:00,59.2,51.7,29.84,NW,311,0.0,0.0,76,0.00,,---,0.00,VWS V14.01,2013-06-13 02:34:00,
2013-06-12 22:39:00,59.0,51.5,29.84,NW,311,0.0,0.0,76,0.00,,---,0.00,VWS V14.01,2013-06-13 02:39:00,
2013-06-12 22:44:00,59.0,51.8,29.84,NW,311,0.0,0.0,77,0.00,,---,0.00,VWS V14.01,2013-06-13 02:44:00,
2013-06-12 22:49:00,58.7,52.2,29.84,NW,311,0.0,0.0,79,0.00,,---,0.00,VWS V14.01,2013-06-13 02:49:00,
2013-06-12 22:54:00,58.4,52.3,29.84,NW,311,0.0,0.0,80,0.00,,---,0.00,VWS V14.01,2013-06-13 02:54:00,
2013-06-12 23:00:00,58.1,52.0,29.84,NW,311,0.0,0.0,80,0.00,,---,0.00,VWS V14.01,2013-06-13 03:00:00,
2013-06-12 23:05:00,57.8,52.3,29.83,NW,311,0.0,0.0,82,0.00,,---,0.00,VWS V14.01,2013-06-13 03:05:00,
2013-06-12 23:10:00,57.5,52.1,29.83,NW,311,0.0,0.0,82,0.00,,---,0.00,VWS V14.01,2013-06-13 03:10:00,
2013-06-12 23:15:00,57.3,51.9,29.83,NW,311,0.0,0.0,82,0.00,,---,0.00,VWS V14.01,2013-06-13 03:15:00,
2013-06-12 23:21:00,57.0,51.9,29.83,NW,311,0.0,0.0,83,0.00,,---,0.00,VWS V14.01,2013-06-13 03:21:00,
2013-06-12 23:26:00,56.9,51.8,29.83,NW,311,0.0,0.0,83,0.00,,---,0.00,VWS V14.01,2013-06-13 03:26:00,
2013-06-12 23:32:00,56.6,51.8,29.83,NW,311,0.0,0.0,84,0.00,,---,0.00,VWS V14.01,2013-06-13 03:32:00,
2013-06-12 23:38:00,56.5,51.7,29.83,NW,311,0.0,0.0,84,0.00,,---,0.00,VWS V14.01,2013-06-13 03:38:00,
2013-06-12 23:43:00,56.3,51.5,29.83,NW,311,0.0,0.0,84,0.00,,---,0.00,VWS V14.01,2013-06-13 03:43:00,
2013-06-12 23:49:00,56.2,51.4,29.83,NW,311,0.0,0.0,84,0.00,,---,0.00,VWS V14.01,2013-06-13 03:49:00,
2013-06-12 23:54:00,56.0,51.2,29.83,NW,311,0.0,0.0,84,0.00,,---,0.00,VWS V14.01,2013-06-13 03:54:00,